Weather in Jacksonville

United States     39°43′23″N   90°13′44″W
temp.,
°C
wind,
m/s
gust,
m/s
humid.,
%
clouds,
%
prec.,
mm/h
press.,
hPa
HPBL,
m
16 may, sun
sun1601:00+12s3690100 0.0 1020160
04:00+12s2589100 0.0 1020122
07:00+13se3693100 0.0 1021193
10:00+16se4574100 0.0 1021358
13:00+20se5664100 0.0 1019903
16:00+20ese477699 0.1 1017290
19:00+18ese51187100 1.1 1017435
22:00+16ese51097100 6.0 1017393
17 may, mon
mon1701:00+16ese4899100 18.6 1016267
04:00+16ese3699100 3.0 1015275
07:00+16se2499100 4.4 1016200
10:00+16ese4798100 2.9 1017317
13:00+17ese5896100 5.4 1016406
16:00+17se61193100 0.5 1015683
19:00+16ese61296100 8.4 1015636
22:00+16ese61298100 4.3 1015576
18 may, tue
tue1801:00+16ese61098100 7.0 1014522
04:00+16ese4998100 0.2 1014423
07:00+16sse51098100 1.1 1015519
10:00+17sse51097100 1.4 1016621
13:00+18sse61095100 1.4 1016507
16:00+22sse677799 0.3 10151000
19:00+21se478353 0.8 1015364
22:00+18sse61297100 0.1 1016462
19 may, wed
wed1901:00+18sse61195100 1.3 1016729
04:00+17sse61495100 0.1 1016462
07:00+18sse61495100 1.6 1017466
10:00+21sse81487100 1.1 1017852
13:00+24s81374100 1.2 10171356
16:00+23s61180100 1.3 1017941
19:00+22s3987100 2.8 1017422
22:00+20sse6148899 0.3 1018393
20 may, thu
thu2001:00+19s5149389 0.6 1019443
04:00+18sse41194100 0.1 1020287
07:00+19sse51192100 0.4 1021316
10:00+23s71378100 0.5 1022966
13:00+23s61182100 2.1 10221060
16:00+26s71170100 1.3 10211333
19:00+23sse510795 2.3 1021341
22:00+20sse5138975 0.0 1022278